Simultaneous Nadir Overpasses (SNOs) Predictions

Prediction of SNOs between GOES-17 and NOAA-19 Satellite Orbit:

Table of predicted SNOs for the next 14.0 days since TLE Epoch: 1/31/2020
Index Date Time (GOES-17) GOES-17 Lat,Lon NOAA-19 Lat,Lon Distance(km) Time Diff (sec)
1 02/01/2020 14:54:05 0.04,-137.21 0.81,-140.60 386.35 80
2 02/02/2020 14:42:24 0.04,-137.20 0.19,-137.74 61.80 80
3 02/03/2020 14:33:25 0.04,-137.20 -0.48,-134.89 262.69 80
4 02/06/2020 02:51:58 -0.05,-137.16 -0.68,-139.91 314.30 80
5 02/07/2020 02:42:58 -0.05,-137.14 -0.01,-137.06 9.72 80
6 02/08/2020 02:31:18 -0.06,-137.12 0.61,-134.20 332.90 80
7 02/10/2020 14:49:32 0.06,-137.09 0.53,-139.15 235.01 80
8 02/11/2020 14:40:32 0.06,-137.06 -0.14,-136.30 88.08 80
9 02/12/2020 14:28:52 0.07,-137.04 -0.76,-133.44 410.95 80
10 02/14/2020 02:59:04 -0.06,-137.00 -1.04,-141.31 491.83 80




NCC Satellite Simultaneous Nadir Overpasses (SNOs) Prediction Service
